| time (UTC) | temp F | wind direction | speed MPH | gust MPH | rain 1hr in | rain 24hr in | rain mn in | humidity % | barometer mb |
| 20260504185051 | 68 | 323 | 6.0 | 15.0 | 0.00 | 0.00 | 0.00 | 42 | 1015.3 |
| 20260504184556 | 67 | 249 | 3.0 | 15.0 | 0.00 | 0.00 | 0.00 | 41 | 1015.3 |
| 20260504184047 | 68 | 16 | 4.0 | 11.0 | 0.00 | 0.00 | 0.00 | 42 | 1015.4 |
| 20260504183547 | 68 | 214 | 2.0 | 13.0 | 0.00 | 0.00 | 0.00 | 42 | 1015.4 |
| 20260504183046 | 67 | 268 | 3.0 | 21.0 | 0.00 | 0.00 | 0.00 | 44 | 1015.5 |
| 20260504182546 | 66 | 152 | 6.0 | 21.0 | 0.00 | 0.00 | 0.00 | 43 | 1015.6 |
| 20260504182044 | 67 | 236 | 3.0 | 13.0 | 0.00 | 0.00 | 0.00 | 44 | 1015.8 |
| 20260504181546 | 67 | 247 | 5.0 | 12.0 | 0.00 | 0.00 | 0.00 | 42 | 1015.9 |
| 20260504181043 | 66 | 286 | 3.0 | 15.0 | 0.00 | 0.00 | 0.00 | 44 | 1016.0 |
| 20260504180544 | 66 | 121 | 4.0 | 15.0 | 0.00 | 0.00 | 0.00 | 43 | 1016.1 |
| 20260504180041 | 67 | 138 | 5.0 | 13.0 | 0.00 | 0.00 | 0.00 | 43 | 1016.1 |
| 20260504175541 | 66 | 350 | 4.0 | 14.0 | 0.00 | 0.00 | 0.00 | 43 | 1016.1 |
| 20260504175043 | 66 | 189 | 6.0 | 14.0 | 0.00 | 0.00 | 0.00 | 42 | 1016.2 |
| 20260504174541 | 67 | 278 | 4.0 | 16.0 | 0.00 | 0.00 | 0.00 | 42 | 1016.1 |
| 20260504174041 | 67 | 134 | 5.0 | 16.0 | 0.00 | 0.00 | 0.00 | 41 | 1016.2 |
| 20260504173539 | 66 | 243 | 2.0 | 9.0 | 0.00 | 0.00 | 0.00 | 41 | 1016.2 |
| 20260504173039 | 65 | 164 | 3.0 | 11.0 | 0.00 | 0.00 | 0.00 | 43 | 1016.3 |
| 20260504172539 | 65 | 211 | 4.0 | 11.0 | 0.00 | 0.00 | 0.00 | 41 | 1016.3 |
| 20260504172037 | 65 | 138 | 4.0 | 13.0 | 0.00 | 0.00 | 0.00 | 42 | 1016.2 |
| 20260504171537 | 65 | 234 | 4.0 | 13.0 | 0.00 | 0.00 | 0.00 | 41 | 1016.4 |
| 20260504171037 | 65 | 72 | 4.0 | 13.0 | 0.00 | 0.00 | 0.00 | 40 | 1016.5 |
| 20260504170534 | 65 | 203 | 5.0 | 14.0 | 0.00 | 0.00 | 0.00 | 40 | 1016.5 |
| 20260504151020 | 55 | 255 | 5.0 | 11.0 | 0.00 | 0.00 | 0.00 | 55 | 1018.7 |
| 20260504150519 | 55 | 324 | 3.0 | 14.0 | 0.00 | 0.00 | 0.00 | 56 | 1019.0 |
| 20260504141012 | 57 | 8 | 6.0 | 19.0 | 0.00 | 0.00 | 0.00 | 50 | 1018.5 |
| 20260504140511 | 57 | 316 | 8.0 | 19.0 | 0.00 | 0.00 | 0.00 | 50 | 1018.5 |
| 20260504130507 | 57 | 247 | 0.0 | 2.0 | 0.00 | 0.00 | 0.00 | 49 | 1017.9 |
| 20260504110549 | 44 | 3 | 1.0 | 4.0 | 0.00 | 0.00 | 0.00 | 70 | 1017.9 |
| 20260504100546 | 47 | 320 | 0.0 | 2.0 | 0.00 | 0.00 | 0.00 | 64 | 1017.6 |
| 20260504081544 | 37 | 236 | 0.0 | 3.0 | 0.00 | 0.00 | 0.00 | 80 | 1017.6 |
| 20260504081031 | 37 | 88 | 0.0 | 3.0 | 0.00 | 0.00 | 0.00 | 79 | 1017.6 |
| 20260504080530 | 37 | 106 | 0.0 | 2.0 | 0.00 | 0.00 | 0.00 | 78 | 1017.6 |
| 20260504050506 | 42 | 120 | 0.0 | 1.0 | 0.00 | 0.00 | 0.00 | 64 | 1018.4 |
| 20260504050013 | 42 | 119 | 0.0 | 1.0 | 0.00 | 0.00 | 0.00 | 65 | 1018.4 |
| 20260504045505 | 42 | 119 | 0.0 | 1.0 | 0.00 | 0.00 | 0.00 | 65 | 1018.4 |
| 20260504045005 | 42 | 119 | 0.0 | 1.0 | 0.00 | 0.00 | 0.00 | 65 | 1018.5 |
| 20260504044504 | 42 | 143 | 0.0 | 1.0 | 0.00 | 0.00 | 0.00 | 65 | 1018.4 |
| 20260504044003 | 41 | 120 | 0.0 | 1.0 | 0.00 | 0.00 | 0.00 | 65 | 1018.4 |
| 20260504043503 | 41 | 120 | 0.0 | 1.0 | 0.00 | 0.00 | 0.00 | 66 | 1018.3 |
| 20260504043003 | 41 | 120 | 0.0 | 1.0 | 0.00 | 0.00 | 0.00 | 65 | 1018.4 |
| 20260504042503 | 41 | 181 | 0.0 | 0.0 | 0.00 | 0.00 | 0.00 | 65 | 1018.4 |
| 20260504042005 | 41 | 181 | 0.0 | 0.0 | 0.00 | 0.00 | 0.00 | 65 | 1018.4 |
| 20260504041501 | 41 | 181 | 0.0 | 1.0 | 0.00 | 0.00 | 0.00 | 65 | 1018.3 |
| 20260504041100 | 41 | 181 | 0.0 | 1.0 | 0.00 | 0.00 | 0.00 | 65 | 1018.4 |
| 20260504040558 | 41 | 183 | 0.0 | 1.0 | 0.00 | 0.00 | 0.00 | 66 | 1018.3 |
| 20260504040057 | 41 | 183 | 0.0 | 1.0 | 0.00 | 0.00 | 0.00 | 64 | 1018.2 |
| 20260504035557 | 41 | 160 | 0.0 | 1.0 | 0.00 | 0.00 | 0.00 | 64 | 1018.4 |
| 20260504035057 | 43 | 112 | 1.0 | 1.0 | 0.00 | 0.00 | 0.00 | 61 | 1018.3 |
| 20260504034557 | 44 | 234 | 0.0 | 1.0 | 0.00 | 0.00 | 0.00 | 59 | 1018.2 |
| 20260504034056 | 45 | 234 | 0.0 | 1.0 | 0.00 | 0.00 | 0.00 | 57 | 1018.3 |
| 20260504033557 | 45 | 234 | 0.0 | 3.0 | 0.00 | 0.00 | 0.00 | 56 | 1018.2 |
| 20260504033101 | 45 | 218 | 0.0 | 4.0 | 0.00 | 0.00 | 0.00 | 55 | 1018.2 |
| 20260504032556 | 46 | 233 | 1.0 | 4.0 | 0.00 | 0.00 | 0.00 | 55 | 1018.2 |
| 20260504032056 | 45 | 212 | 1.0 | 2.0 | 0.00 | 0.00 | 0.00 | 55 | 1018.1 |
| 20260504031557 | 45 | 174 | 0.0 | 3.0 | 0.00 | 0.00 | 0.00 | 55 | 1018.1 |
| 20260504031056 | 46 | 217 | 0.0 | 3.0 | 0.00 | 0.00 | 0.00 | 54 | 1018.1 |
| 20260504030558 | 46 | 221 | 1.0 | 3.0 | 0.00 | 0.00 | 0.00 | 53 | 1018.2 |
| 20260504030055 | 46 | 230 | 0.0 | 4.0 | 0.00 | 0.00 | 0.00 | 52 | 1018.1 |
| 20260504025555 | 46 | 226 | 1.0 | 4.0 | 0.00 | 0.00 | 0.00 | 52 | 1018.2 |
| 20260504025055 | 46 | 188 | 1.0 | 3.0 | 0.00 | 0.00 | 0.00 | 51 | 1018.3 |
| 20260504024555 | 46 | 169 | 1.0 | 3.0 | 0.00 | 0.00 | 0.00 | 51 | 1018.4 |
| 20260504024057 | 46 | 136 | 1.0 | 3.0 | 0.00 | 0.00 | 0.00 | 50 | 1018.4 |
| 20260504023554 | 47 | 189 | 1.0 | 3.0 | 0.00 | 0.00 | 0.00 | 49 | 1018.4 |
| 20260504023054 | 47 | 233 | 1.0 | 3.0 | 0.00 | 0.00 | 0.00 | 48 | 1018.5 |
| 20260504022554 | 47 | 233 | 0.0 | 3.0 | 0.00 | 0.00 | 0.00 | 48 | 1018.4 |
| 20260504022054 | 46 | 151 | 1.0 | 3.0 | 0.00 | 0.00 | 0.00 | 49 | 1018.4 |
| 20260504021555 | 46 | 175 | 1.0 | 2.0 | 0.00 | 0.00 | 0.00 | 48 | 1018.4 |
| 20260504021053 | 47 | 127 | 1.0 | 4.0 | 0.00 | 0.00 | 0.00 | 48 | 1018.3 |
| 20260504020553 | 47 | 163 | 1.0 | 4.0 | 0.00 | 0.00 | 0.00 | 48 | 1018.2 |
| 20260504020128 | 47 | 223 | 1.0 | 4.0 | 0.00 | 0.00 | 0.00 | 48 | 1018.1 |
| 20260504015553 | 46 | 153 | 1.0 | 4.0 | 0.00 | 0.00 | 0.00 | 48 | 1018.0 |
| 20260504015053 | 47 | 109 | 1.0 | 4.0 | 0.00 | 0.00 | 0.00 | 48 | 1018.0 |
| 20260504014602 | 47 | 103 | 1.0 | 4.0 | 0.00 | 0.00 | 0.00 | 48 | 1018.0 |
| 20260504014051 | 47 | 117 | 1.0 | 3.0 | 0.00 | 0.00 | 0.00 | 47 | 1017.9 |
| 20260504013552 | 47 | 131 | 0.0 | 3.0 | 0.00 | 0.00 | 0.00 | 46 | 1017.9 |
| 20260504013106 | 47 | 100 | 1.0 | 3.0 | 0.00 | 0.00 | 0.00 | 46 | 1017.9 |
| 20260504012552 | 48 | 227 | 0.0 | 1.0 | 0.00 | 0.00 | 0.00 | 45 | 1017.9 |
| 20260504012055 | 48 | 231 | 0.0 | 3.0 | 0.00 | 0.00 | 0.00 | 43 | 1017.8 |
| 20260504011552 | 49 | 230 | 1.0 | 3.0 | 0.00 | 0.00 | 0.00 | 43 | 1017.7 |
| 20260504011052 | 49 | 162 | 0.0 | 3.0 | 0.00 | 0.00 | 0.00 | 44 | 1017.8 |
| 20260504010550 | 49 | 133 | 1.0 | 2.0 | 0.00 | 0.00 | 0.00 | 44 | 1017.7 |
| 20260504010050 | 49 | 149 | 1.0 | 2.0 | 0.00 | 0.00 | 0.00 | 44 | 1017.5 |
| 20260504005550 | 49 | 150 | 0.0 | 2.0 | 0.00 | 0.00 | 0.00 | 44 | 1017.5 |
| 20260504005050 | 50 | 151 | 0.0 | 4.0 | 0.00 | 0.00 | 0.00 | 42 | 1017.6 |
| 20260504004619 | 50 | 164 | 1.0 | 4.0 | 0.00 | 0.00 | 0.00 | 42 | 1017.5 |
| 20260504004049 | 51 | 151 | 1.0 | 6.0 | 0.00 | 0.00 | 0.00 | 40 | 1017.4 |
| 20260504003549 | 52 | 248 | 1.0 | 5.0 | 0.00 | 0.00 | 0.00 | 37 | 1017.3 |
| 20260504003053 | 52 | 212 | 0.0 | 4.0 | 0.00 | 0.00 | 0.00 | 37 | 1017.3 |
| 20260504002549 | 52 | 252 | 2.0 | 6.0 | 0.00 | 0.00 | 0.00 | 37 | 1017.3 |
| 20260504002049 | 52 | 236 | 1.0 | 6.0 | 0.00 | 0.00 | 0.00 | 37 | 1017.2 |
| 20260504001618 | 53 | 288 | 2.0 | 7.0 | 0.00 | 0.00 | 0.00 | 36 | 1017.2 |
| 20260504001050 | 53 | 245 | 2.0 | 7.0 | 0.00 | 0.00 | 0.00 | 35 | 1017.1 |
| 20260504000549 | 54 | 235 | 2.0 | 6.0 | 0.00 | 0.00 | 0.00 | 35 | 1017.2 |
| 20260504000053 | 54 | 218 | 1.0 | 6.0 | 0.00 | 0.00 | 0.00 | 34 | 1017.1 |
| 20260503235548 | 55 | 334 | 1.0 | 6.0 | 0.00 | 0.00 | 0.00 | 33 | 1017.1 |
| 20260503235049 | 55 | 283 | 1.0 | 7.0 | 0.00 | 0.00 | 0.00 | 32 | 1017.0 |
| 20260503234548 | 55 | 295 | 3.0 | 7.0 | 0.00 | 0.00 | 0.00 | 32 | 1017.0 |
| 20260503234047 | 56 | 290 | 1.0 | 10.0 | 0.00 | 0.00 | 0.00 | 32 | 1017.0 |
| 20260503233546 | 56 | 261 | 1.0 | 9.0 | 0.00 | 0.00 | 0.00 | 32 | 1017.0 |
| 20260503233047 | 56 | 232 | 3.0 | 10.0 | 0.00 | 0.00 | 0.00 | 31 | 1017.0 |
| 20260503232547 | 56 | 258 | 2.0 | 10.0 | 0.00 | 0.00 | 0.00 | 31 | 1016.9 |
| 20260503232046 | 56 | 300 | 1.0 | 11.0 | 0.00 | 0.00 | 0.00 | 31 | 1016.9 |
| 20260503231546 | 56 | 278 | 1.0 | 11.0 | 0.00 | 0.00 | 0.00 | 30 | 1016.9 |
| 20260503231047 | 56 | 350 | 2.0 | 11.0 | 0.00 | 0.00 | 0.00 | 30 | 1016.8 |
| 20260503230546 | 56 | 1 | 2.0 | 11.0 | 0.00 | 0.00 | 0.00 | 29 | 1017.0 |
| 20260503230107 | 57 | 252 | 5.0 | 11.0 | 0.00 | 0.00 | 0.00 | 29 | 1016.9 |
| 20260503225545 | 57 | 314 | 5.0 | 11.0 | 0.00 | 0.00 | 0.00 | 28 | 1017.0 |
| 20260503225045 | 57 | 25 | 3.0 | 8.0 | 0.00 | 0.00 | 0.00 | 27 | 1017.0 |
| 20260503224545 | 57 | 303 | 4.0 | 13.0 | 0.00 | 0.00 | 0.00 | 28 | 1017.0 |
| 20260503224045 | 57 | 330 | 4.0 | 13.0 | 0.00 | 0.00 | 0.00 | 28 | 1017.1 |
| 20260503223544 | 58 | 328 | 5.0 | 10.0 | 0.00 | 0.00 | 0.00 | 27 | 1017.0 |
| 20260503223046 | 58 | 308 | 2.0 | 10.0 | 0.00 | 0.00 | 0.00 | 27 | 1017.2 |
| 20260503222544 | 58 | 226 | 3.0 | 10.0 | 0.00 | 0.00 | 0.00 | 26 | 1017.1 |
| 20260503222044 | 57 | 19 | 3.0 | 14.0 | 0.00 | 0.00 | 0.00 | 26 | 1017.1 |
| 20260503221544 | 58 | 121 | 7.0 | 14.0 | 0.00 | 0.00 | 0.00 | 26 | 1017.3 |
| 20260503221044 | 58 | 284 | 4.0 | 14.0 | 0.00 | 0.00 | 0.00 | 25 | 1017.3 |
| 20260503220544 | 58 | 356 | 4.0 | 14.0 | 0.00 | 0.00 | 0.00 | 25 | 1017.2 |
| 20260503220048 | 58 | 19 | 7.0 | 14.0 | 0.00 | 0.00 | 0.00 | 25 | 1017.2 |
| 20260503215543 | 59 | 304 | 3.0 | 11.0 | 0.00 | 0.00 | 0.00 | 25 | 1017.2 |
| 20260503215042 | 58 | 247 | 3.0 | 13.0 | 0.00 | 0.00 | 0.00 | 24 | 1017.2 |
| 20260503214544 | 58 | 1 | 7.0 | 14.0 | 0.00 | 0.00 | 0.00 | 23 | 1017.3 |
| 20260503214043 | 58 | 4 | 3.0 | 14.0 | 0.00 | 0.00 | 0.00 | 24 | 1017.3 |
| 20260503213544 | 58 | 148 | 5.0 | 12.0 | 0.00 | 0.00 | 0.00 | 24 | 1017.3 |
| 20260503213044 | 58 | 104 | 4.0 | 14.0 | 0.00 | 0.00 | 0.00 | 24 | 1017.4 |
| 20260503212543 | 58 | 233 | 4.0 | 14.0 | 0.00 | 0.00 | 0.00 | 24 | 1017.4 |
| 20260503212042 | 58 | 65 | 2.0 | 14.0 | 0.00 | 0.00 | 0.00 | 24 | 1017.5 |
| 20260503211542 | 58 | 307 | 4.0 | 16.0 | 0.00 | 0.00 | 0.00 | 24 | 1017.5 |
| 20260503211041 | 59 | 300 | 7.0 | 16.0 | 0.00 | 0.00 | 0.00 | 23 | 1017.5 |
| 20260503210541 | 59 | 54 | 4.0 | 12.0 | 0.00 | 0.00 | 0.00 | 22 | 1017.6 |
| 20260503210041 | 59 | 132 | 4.0 | 13.0 | 0.00 | 0.00 | 0.00 | 22 | 1017.7 |
| 20260503205542 | 59 | 260 | 4.0 | 13.0 | 0.00 | 0.00 | 0.00 | 23 | 1017.8 |
| 20260503205041 | 58 | 219 | 3.0 | 12.0 | 0.00 | 0.00 | 0.00 | 23 | 1017.8 |
| 20260503204540 | 58 | 335 | 2.0 | 10.0 | 0.00 | 0.00 | 0.00 | 24 | 1017.9 |
| 20260503204040 | 59 | 248 | 5.0 | 11.0 | 0.00 | 0.00 | 0.00 | 22 | 1017.9 |
| 20260503203539 | 58 | 257 | 6.0 | 11.0 | 0.00 | 0.00 | 0.00 | 20 | 1018.1 |
| 20260503203057 | 59 | 286 | 5.0 | 11.0 | 0.00 | 0.00 | 0.00 | 22 | 1018.0 |
| 20260503202539 | 60 | 316 | 2.0 | 11.0 | 0.00 | 0.00 | 0.00 | 25 | 1018.0 |
| 20260503202041 | 59 | 281 | 3.0 | 11.0 | 0.00 | 0.00 | 0.00 | 25 | 1018.0 |
| 20260503201539 | 60 | 258 | 2.0 | 13.0 | 0.00 | 0.00 | 0.00 | 24 | 1018.1 |
| 20260503201038 | 60 | 286 | 4.0 | 13.0 | 0.00 | 0.00 | 0.00 | 26 | 1018.1 |
| 20260503200542 | 60 | 243 | 3.0 | 15.0 | 0.00 | 0.00 | 0.00 | 28 | 1018.0 |
| 20260503200038 | 59 | 273 | 7.0 | 15.0 | 0.00 | 0.00 | 0.00 | 25 | 1018.0 |
| 20260503195537 | 60 | 298 | 3.0 | 10.0 | 0.00 | 0.00 | 0.00 | 27 | 1018.2 |
| 20260503195038 | 60 | 108 | 0.0 | 6.0 | 0.00 | 0.00 | 0.00 | 28 | 1018.1 |
| 20260503194543 | 60 | 129 | 2.0 | 6.0 | 0.00 | 0.00 | 0.00 | 26 | 1018.2 |
| 20260503194038 | 60 | 224 | 3.0 | 10.0 | 0.00 | 0.00 | 0.00 | 27 | 1018.2 |
| 20260503193538 | 60 | 237 | 3.0 | 10.0 | 0.00 | 0.00 | 0.00 | 27 | 1018.2 |
| 20260503193039 | 60 | 212 | 1.0 | 6.0 | 0.00 | 0.00 | 0.00 | 27 | 1018.3 |
| 20260503192535 | 59 | 267 | 1.0 | 6.0 | 0.00 | 0.00 | 0.00 | 28 | 1018.3 |
| 20260503192036 | 59 | 149 | 1.0 | 9.0 | 0.00 | 0.00 | 0.00 | 28 | 1018.5 |
| 20260503191540 | 58 | 276 | 3.0 | 9.0 | 0.00 | 0.00 | 0.00 | 27 | 1018.6 |
| 20260503191033 | 58 | 226 | 4.0 | 9.0 | 0.00 | 0.00 | 0.00 | 30 | 1018.7 |
| 20260503190534 | 57 | 215 | 2.0 | 7.0 | 0.00 | 0.00 | 0.00 | 27 | 1018.6 |
| 20260503190039 | 56 | 353 | 2.0 | 12.0 | 0.00 | 0.00 | 0.00 | 26 | 1018.7 |
| 20260503185531 | 56 | 125 | 2.0 | 12.0 | 0.00 | 0.00 | 0.00 | 29 | 1018.8 |